OpenBCM V1.07b12 (Linux)

Packet Radio Mailbox

DB0FHN

[JN59NK Nuernberg]

 Login: GUEST





  
I6KZR  > KEPLER   16.04.03 20:49l 1486 Lines 39755 Bytes #999 (0) @ WW
BID : 209_I6KZR
Read: DB0FHN GUEST
Subj: Old Istantrak Keplerians #106
Path: DB0FHN<DB0RGB<DB0FSG<I4UKI<I6ZLO<IK6WID
Sent: 030416/1834Z @:IK6WID.#AP.IMAR.ITA.EU #:35089 [MONTE URANO]  FBB7.00i
From: I6KZR@IK6WID.#AP.IMAR.ITA.EU
To  : KEPLER@WW






Inviato da: I6KZR@IK6WID.#AP.IMAR.ITA.EU        

Satellite: OSCAR 7
Catalog number: 07530
Epoch time:      103105.71588537
Element set:     163 
Inclination:      101.7503 deg
RA of node:       152.9514 deg
Eccentricity:    0.0012279
Arg of perigee:   330.5134 deg
Mean anomaly:      29.5244 deg
Mean motion:   12.53565156 rev/day
Decay rate:   -2.9000E-007 rev/day^2
Epoch rev:           30022
Checksum:              268

Satellite: GOES 2
Catalog number: 10061
Epoch time:      103103.01077135
Element set:     152 
Inclination:       14.1488 deg
RA of node:        13.0197 deg
Eccentricity:    0.0012553
Arg of perigee:   201.4616 deg
Mean anomaly:     158.4638 deg
Mean motion:    0.99402106 rev/day
Decay rate:   -2.1500E-006 rev/day^2
Epoch rev:            3936
Checksum:              242

Satellite: GOES 3
Catalog number: 10953
Epoch time:      103105.77544492
Element set:     989 
Inclination:       13.4353 deg
RA of node:        16.8041 deg
Eccentricity:    0.0006479
Arg of perigee:   350.4855 deg
Mean anomaly:       9.4626 deg
Mean motion:    1.00280301 rev/day
Decay rate:   -1.0899E-006 rev/day^2
Epoch rev:            4406
Checksum:              399

Satellite: GOES 6
Catalog number: 14050
Epoch time:      103101.88235169
Element set:     436 
Inclination:       10.4645 deg
RA of node:        35.2213 deg
Eccentricity:    0.0006105
Arg of perigee:     2.7629 deg
Mean anomaly:     357.1971 deg
Mean motion:    1.00317108 rev/day
Decay rate:   -9.9999E-009 rev/day^2
Epoch rev:           13116
Checksum:              387

Satellite: OSCAR 10
Catalog number: 14129
Epoch time:      103104.77916936
Element set:     926 
Inclination:       26.0724 deg
RA of node:       155.2532 deg
Eccentricity:    0.6005361
Arg of perigee:   343.9249 deg
Mean anomaly:       3.4132 deg
Mean motion:    2.05870187 rev/day
Decay rate:   -1.7099E-006 rev/day^2
Epoch rev:           12120
Checksum:              284

Satellite: OSCAR 11 (UoSA
Catalog number: 14781
Epoch time:      103106.20515544
Element set:     123 
Inclination:       98.1269 deg
RA of node:        80.6039 deg
Eccentricity:    0.0010236
Arg of perigee:    34.9587 deg
Mean anomaly:     325.2291 deg
Mean motion:   14.78171082 rev/day
Decay rate:    9.1600E-006 rev/day^2
Epoch rev:            2460
Checksum:              281

Satellite: NOAA 10
Catalog number: 16969
Epoch time:      103106.62034175
Element set:     738 
Inclination:       98.7357 deg
RA of node:       100.6406 deg
Eccentricity:    0.0011676
Arg of perigee:   283.4736 deg
Mean anomaly:      76.5141 deg
Mean motion:   14.27088804 rev/day
Decay rate:    1.2699E-006 rev/day^2
Epoch rev:           86204
Checksum:              325

Satellite: GOES 7
Catalog number: 17561
Epoch time:      103104.62543791
Element set:     926 
Inclination:        7.7050 deg
RA of node:        55.1697 deg
Eccentricity:    0.0004610
Arg of perigee:   288.2283 deg
Mean anomaly:     263.4764 deg
Mean motion:    1.00273064 rev/day
Decay rate:    3.8999E-007 rev/day^2
Epoch rev:            4229
Checksum:              311

Satellite: COSMOS 1861
Catalog number: 18129
Epoch time:      103106.07331328
Element set:     225 
Inclination:       82.9205 deg
RA of node:       104.7643 deg
Eccentricity:    0.0013506
Arg of perigee:    69.9155 deg
Mean anomaly:     290.3451 deg
Mean motion:   13.72706955 rev/day
Decay rate:    5.9000E-007 rev/day^2
Epoch rev:           79226
Checksum:              308

Satellite: EUTELSAT 1-F4 
Catalog number: 18351
Epoch time:      103103.65912605
Element set:     54 
Inclination:        7.3069 deg
RA of node:        58.3257 deg
Eccentricity:    0.0005923
Arg of perigee:   199.8468 deg
Mean anomaly:     160.1525 deg
Mean motion:    0.98690409 rev/day
Decay rate:   -2.2199E-006 rev/day^2
Epoch rev:            4321
Checksum:              311

Satellite: NOAA 11
Catalog number: 19531
Epoch time:      103106.59344897
Element set:     575 
Inclination:       98.8921 deg
RA of node:       187.7627 deg
Eccentricity:    0.0012230
Arg of perigee:    44.8625 deg
Mean anomaly:     315.3535 deg
Mean motion:   14.14565508 rev/day
Decay rate:    1.4400E-006 rev/day^2
Epoch rev:           75086
Checksum:              322

Satellite: ASTRA 1A
Catalog number: 19688
Epoch time:      103106.34424398
Element set:     597 
Inclination:        1.5287 deg
RA of node:        93.6159 deg
Eccentricity:    0.0004405
Arg of perigee:   276.3995 deg
Mean anomaly:     323.2001 deg
Mean motion:    1.00272762 rev/day
Decay rate:    3.1999E-007 rev/day^2
Epoch rev:            3276
Checksum:              421

Satellite: OSCAR 14 (UOSA
Catalog number: 20437
Epoch time:      103105.63601214
Element set:     209 
Inclination:       98.2613 deg
RA of node:       146.5431 deg
Eccentricity:    0.0011678
Arg of perigee:    38.5452 deg
Mean anomaly:     321.6556 deg
Mean motion:   14.31257787 rev/day
Decay rate:    1.0400E-006 rev/day^2
Epoch rev:           69051
Checksum:              283

Satellite: OSCAR 15 (UOSA
Catalog number: 20438
Epoch time:      103105.69643400
Element set:     812 
Inclination:       98.2386 deg
RA of node:       135.4862 deg
Eccentricity:    0.0010969
Arg of perigee:    48.6509 deg
Mean anomaly:     311.5617 deg
Mean motion:   14.30213737 rev/day
Decay rate:    4.8999E-007 rev/day^2
Epoch rev:           69018
Checksum:              334

Satellite: OSCAR 16 (PACS
Catalog number: 20439
Epoch time:      103105.64164902
Element set:     881 
Inclination:       98.3064 deg
RA of node:       158.5558 deg
Eccentricity:    0.0011685
Arg of perigee:    45.8248 deg
Mean anomaly:     314.3901 deg
Mean motion:   14.31495131 rev/day
Decay rate:    8.4999E-007 rev/day^2
Epoch rev:           69055
Checksum:              334

Satellite: OSCAR 17 (DOVE
Catalog number: 20440
Epoch time:      103105.68950645
Element set:     762 
Inclination:       98.3267 deg
RA of node:       162.6262 deg
Eccentricity:    0.0012096
Arg of perigee:    42.4277 deg
Mean anomaly:     317.7840 deg
Mean motion:   14.31775973 rev/day
Decay rate:    1.4600E-006 rev/day^2
Epoch rev:           69063
Checksum:              315

Satellite: OSCAR 18 (WEBE
Catalog number: 20441
Epoch time:      103106.52785876
Element set:     59 
Inclination:       98.3209 deg
RA of node:       162.6029 deg
Eccentricity:    0.0012540
Arg of perigee:    43.0682 deg
Mean anomaly:     317.1482 deg
Mean motion:   14.31577097 rev/day
Decay rate:    1.3400E-006 rev/day^2
Epoch rev:           69073
Checksum:              301

Satellite: OSCAR 19 (LUSA
Catalog number: 20442
Epoch time:      103105.66114424
Element set:     3 
Inclination:       98.3379 deg
RA of node:       164.8990 deg
Eccentricity:    0.0012903
Arg of perigee:    43.1696 deg
Mean anomaly:     317.0494 deg
Mean motion:   14.31740698 rev/day
Decay rate:    1.1800E-006 rev/day^2
Epoch rev:           69066
Checksum:              304

Satellite: JAS 1B (FUJI 2
Catalog number: 20480
Epoch time:      103105.90995232
Element set:     486 
Inclination:       99.0563 deg
RA of node:        58.0915 deg
Eccentricity:    0.0539436
Arg of perigee:   236.2290 deg
Mean anomaly:     118.6308 deg
Mean motion:   12.83331716 rev/day
Decay rate:    1.1000E-007 rev/day^2
Epoch rev:           61774
Checksum:              389

Satellite: HST
Catalog number: 20580
Epoch time:      103106.13199399
Element set:     395 
Inclination:       28.4682 deg
RA of node:        30.5422 deg
Eccentricity:    0.0004624
Arg of perigee:   151.1063 deg
Mean anomaly:     344.3618 deg
Mean motion:   14.98063138 rev/day
Decay rate:    2.2939E-005 rev/day^2
Epoch rev:           51112
Checksum:              286

Satellite: EUTELSAT 2-F1
Catalog number: 20777
Epoch time:      103101.07325015
Element set:     57 
Inclination:        3.6266 deg
RA of node:        84.0306 deg
Eccentricity:    0.0005426
Arg of perigee:   334.0177 deg
Mean anomaly:     243.1840 deg
Mean motion:    1.00271867 rev/day
Decay rate:   -9.5999E-007 rev/day^2
Epoch rev:            2661
Checksum:              280

Satellite: FENGYUN 1B
Catalog number: 20788
Epoch time:      103105.97812302
Element set:     940 
Inclination:       99.0366 deg
RA of node:        87.6464 deg
Eccentricity:    0.0017431
Arg of perigee:    72.3142 deg
Mean anomaly:     287.9924 deg
Mean motion:   14.02153474 rev/day
Decay rate:   -1.8700E-006 rev/day^2
Epoch rev:           64544
Checksum:              309

Satellite: EUTELSAT 2-F2
Catalog number: 21056
Epoch time:      103106.64138780
Element set:     633 
Inclination:        2.8671 deg
RA of node:        87.3070 deg
Eccentricity:    0.0006876
Arg of perigee:   359.5586 deg
Mean anomaly:      36.9290 deg
Mean motion:    1.00276077 rev/day
Decay rate:    1.1800E-006 rev/day^2
Epoch rev:            3245
Checksum:              293

Satellite: INFORMATOR 1
Catalog number: 21087
Epoch time:      103105.95706932
Element set:     627 
Inclination:       82.9387 deg
RA of node:       275.6361 deg
Eccentricity:    0.0036903
Arg of perigee:    92.2317 deg
Mean anomaly:     268.3066 deg
Mean motion:   13.74932621 rev/day
Decay rate:    6.8999E-007 rev/day^2
Epoch rev:           61263
Checksum:              340

Satellite: COSMOS 2123
Catalog number: 21089
Epoch time:      103106.54288717
Element set:     505 
Inclination:       82.9216 deg
RA of node:       139.1174 deg
Eccentricity:    0.0030527
Arg of perigee:   125.5180 deg
Mean anomaly:     234.8830 deg
Mean motion:   13.74410263 rev/day
Decay rate:    5.2000E-007 rev/day^2
Epoch rev:           61161
Checksum:              279

